Regional Weather Roundup
Issued by NWS Pendleton, OR

Home | Current Version | Previous Version | Text Only | Print | Product List | Glossary On
Versions: 1 2 3 4 5 6 7 8 9 10 11 12 13 14 15 16 17 18 19 20 21 22 23 24 25 26 27 28 29 30 31 32 33 34 35 36 37 38 39 40 41 42 43 44 45 46 47 48 49 50
353
ASUS46 KPDT 220825
RWRPDT
PENDLETON REGIONAL WEATHER ROUNDUP
NATIONAL WEATHER SERVICE PENDLETON OREGON
1200 AM PST SUN JAN 22 2017

NOTE: FAIR INDICATES FEW OR NO CLOUDS BELOW 12,000 FEET WITH NO
SIGNIFICANT WEATHER AND/OR OBSTRUCTIONS TO VISIBILITY.

# INDICATES UNOFFICIAL STATION AND DATA

WAZ520-220910-
EAST SLOPES OF WASHINGTON CASCADES

CITY            SKY/WX      TMP DP  RH  WIND    PRES   REMARKS
#CLE ELUM HS    N/A         36  32  85  CALM    29.63S
#CLE ELUM LAKE  N/A         31  31  100 CALM    29.66F
#GLENWOOD       N/A         32  31  96  CALM    29.68R
#NELSON 3SW     N/A         31  30  96  CALM    29.90S
#NILE           N/A         31  30  96  CALM    28.94F
#RONALD 2NW     N/A         31  N/A N/A CALM    29.49F
#TEANAWAY 4NE   N/A         33  33  100 CALM    N/A
#TROUT LAKE 1NE N/A         32  31  96  CALM    29.68S
#TROUT LAKE 1E  N/A         31  30  96  CALM    29.64F
$$

WAZ521-220910-
SIMCOE HIGHLANDS

CITY            SKY/WX      TMP DP  RH  WIND    PRES   REMARKS
#BICKLETON HS   N/A         30  29  96  W7      29.25F
#CENTERVILLE 1SWN/A         29  26  88  CALM    29.67R
#GOLDENDALE 1NE N/A         32  29  89  NW5     N/A
#GOLDENDALE 4W  N/A         32  26  78  CALM    29.67S
#GOODNOE HILLS  N/A         32  28  85  NE3     N/A
#LYLE 6NE       N/A         31  30  96  CALM    29.66R
#PITT 4SE       N/A         31  30  96  NE3     29.71S
$$

WAZ026-220910-
KITTITAS VALLEY

CITY            SKY/WX      TMP DP  RH  WIND    PRES   REMARKS
ELLENSBURG AP   CLOUDY      36  32  85  VRB3    29.64F
#ELLENSBURG CWU N/A         34  33  96  CALM    29.65S
#ELLENSBURG 3NE N/A         34  32  92  CALM    27.75F
#KITTITAS 4N    N/A         34  31  89  E1      29.68F
#KITTITAS 3S    N/A         33  32  96  CALM    29.69S
#THORP 6N       N/A         32  32  100 E6      29.71F
$$

WAZ027-220910-
YAKIMA VALLEY

CITY            SKY/WX      TMP DP  RH  WIND    PRES   REMARKS
SUNNYSIDE AP    FRZFOG      28  28  100 CALM    29.69S VSB<1/4
YAKIMA AIRPORT  PTCLDY      33  31  92  NW5     29.67F FOG
YAKIMA-VAGABOND MOCLDY      34  32  92  CALM    29.64F FOG
#DONALD 2NE     N/A         32  27  82  CALM    28.53S
#MABTON         N/A         31  30  96  CALM    29.68F
#NACHES 2SW     N/A         34  33  96  CALM    29.64R
#TERRACE HTS    N/A         31  30  96  CALM    29.68F
#TOPPENISH      N/A         31  30  96  CALM    29.63F
#WEST VALLEY    N/A         33  32  96  CALM    29.70S
#W YAKIMA       N/A         33  32  96  CALM    29.71R
#WHITE SWAN 5E  N/A         30  29  96  CALM    29.72S
#WILEY CITY 3W  N/A         33  29  85  CALM    29.63S
$$

WAZ028-220910-
LOWER COLUMBIA BASIN...WASHINGTON

CITY            SKY/WX      TMP DP  RH  WIND    PRES   REMARKS
PASCO           FRZFOG      25  25  100 CALM    29.72S VSB 1/4
PROSSER AWOS    N/A         27  27  100 CALM    29.73S
RICHLAND AWOS   FRZFOG      30  30  100 SW3     29.72S VSB<1/4
#BENTON CITY    N/A         31  30  96  CALM    29.63R
#CONNELL 5N     N/A         34  32  92  CALM    29.72S
#CONNELL 5NW    N/A         36  34  92  CALM    29.68R
#ELTOPIA 6NW    N/A         32  31  96  CALM    28.66S
#KAHLOTUS       N/A         38  33  82  W3      29.73R
#KENNEWICK 3S   N/A         31  29  92  CALM    29.72F
#PATERSON       N/A         30  29  96  CALM    29.69F
#SAGEMOOR 2W    N/A         32  30  92  CALM    29.56F
#TOUCHET 2S     N/A         32  30  92  W2      29.70S
#WEST PASCO     N/A         29  26  88  CALM    29.67S
$$

WAZ029-220910-
FOOTHILLS OF THE BLUES...WASHINGTON

CITY            SKY/WX      TMP DP  RH  WIND    PRES   REMARKS
WALLA WALLA AP  MOCLDY      44  32  62  E12     29.67F WCI 38
#CLYDE 6NW      N/A         41  34  76  CALM    29.72R
#DAYTON SCHOOL  N/A         37  27  67  CALM    29.74R
#LOWDEN 2SE     N/A         41  36  82  S1      29.65S
#PLEASANT VIEW 1N/A         38  33  82  S6      29.76S
#PRESCOTT       N/A         39  35  85  CALM    29.71F
#WHITMAN COLLEGEN/A         47  34  60  E8      29.75F
#WAITSBURG 5S   N/A         42  34  73  SE15    29.80F WCI 34
#WAITSBURG 8N   N/A         38  N/A N/A SE2     29.53S
#WALLA WALLA 5E N/A         45  34  65  SE15    N/A    WCI 38
#WALLA WALLA U  N/A         48  36  63  E2      29.70F
#WHITMAN MISSIONN/A         45  37  73  CALM    29.71F
$$

WAZ030-220910-
BLUE MOUNTAINS...WASHINGTON

CITY            SKY/WX      TMP DP  RH  WIND    PRES   REMARKS
#DIXIE 5SE      N/A         38  30  73  E17G31  29.58F WCI 29
#SKI BLUEWOOD   N/A         31  27  85  W5      29.65R
$$

ORZ009-041-WAZ024-220910-
COLUMBIA RIVER GORGE

CITY            SKY/WX      TMP DP  RH  WIND    PRES   REMARKS
HOOD RIVER AP   CLOUDY      32  32  100 CALM    29.67F FOG
THE DALLES AP   FOG         32  32  100 CALM    29.69S VSB 1/4
#ARLINGTON AIRPON/A         30  29  96  CALM    29.72S
#ARLINGTON HS   N/A         29  26  88  E2      29.62S
#CELILO DOT     N/A         34  31  89  CALM    N/A
#LYLE           N/A         35  34  96  CALM    29.71S
#MOSIER 1S      N/A         33  30  89  CALM    29.65S
#MURDOCK        N/A         33  32  96  CALM    29.67R
#RUFUS DOT      N/A         32  30  92  S8      N/A
#SMITHVILLE     N/A         32  30  92  N2      29.66R

$$

ORZ510-220910-
NORTH CENTRAL OREGON

CITY            SKY/WX      TMP DP  RH  WIND    PRES   REMARKS
#ANTELOPE       N/A         36  27  69  NE2     29.53F
#CHENOWITH 1W   N/A         31  31  100 SE6     N/A
#COW CYN RST AREN/A         34  N/A N/A NE6     N/A
#DUFUR 9E       N/A         38  33  82  SE7     29.72S
#GRASS VALLEY 1SN/A         32  28  85  SE1     29.58S
#KENT DOT       N/A         35  21  56  N6      N/A
#MAUPIN SCHOOL  N/A         31  29  92  CALM    29.67F
#SHANIKO 5WSW   N/A         32  18  56  N14     N/A    WCI 22
#SHANIKO 4NW    N/A         32  23  69  SE14    29.57F WCI 22
#TYGH VALLEY 2NEN/A         30  28  92  N1      29.67F
#WAPANITIA AIRPON/A         28  27  96  CALM    29.68F
#WASCO DOT      N/A         26  24  92  CALM    N/A
#WASCO 5NE      N/A         25  23  92  CALM    29.70S
$$

ORZ511-220910-
CENTRAL OREGON

CITY            SKY/WX      TMP DP  RH  WIND    PRES   REMARKS
BEND AIRPORT    CLOUDY      37  27  67  S13     29.56F WCI 29
MADRAS AIRPORT  CLOUDY      30  25  81  S3      29.59F
PRINEVILLE AP   CLOUDY      36  25  64  E9      29.58F
REDMOND AIRPORT CLOUDY      38  24  57  SE9     29.56F
#ASHWOOD SCHOOL N/A         34  27  75  CALM    29.59F
#BEND 1SW       N/A         33  28  82  SW1     N/A
#BEND-AWBREY    N/A         36  30  79  SE5     29.62F
#BEND-KIM LN    N/A         34  28  78  E5      29.55F
#CULVER         N/A         38  28  67  E3      29.57F
#CULVER 8W      N/A         30  24  78  CALM    29.63F
#MADRAS 4S      N/A         38   2  21  S9      29.67F
#POWELL BUTTE   N/A         35  21  56  SE21    29.57F WCI 24
#PRINEVILLE 3N  N/A         38  28  67  E14     29.64F WCI 30
#WARM SPRINGS   N/A         33  29  85  CALM    29.57F

$$


ORZ509-220910-
EAST SLOPES OF OREGON CASCADES

CITY            SKY/WX      TMP DP  RH  WIND    PRES   REMARKS
SISTERS AWOS    N/A         27  25  92  CALM    29.55F
#BLUE BOX PASS  N/A         28  N/A N/A NE6     N/A
#CAMP SHERMAN   N/A         27  25  92  CALM    29.70F
#LA PINE 4NW    N/A         33  25  72  S5      29.68F
#LAVA BUTTE DOT N/A         34  20  56  SE2     N/A
#SISTERS ODOT   N/A         26  N/A N/A CALM    N/A
#SISTERS 3N     N/A         24  20  84  CALM    29.58F
#SUNRIVER       N/A         30  28  92  S1      29.66F
#SUTTLE LK DOT  N/A         23  23  100 SW15G25 N/A    WCI 10
#TUMALO 3W      N/A         33  26  75  SE5     29.48F
#WANOGA BUTTE D N/A         24  24  100 CALM    N/A

$$

ORZ044-220910-
LOWER COLUMBIA BASIN...OREGON

CITY            SKY/WX      TMP DP  RH  WIND    PRES   REMARKS
HERMISTON       PTCLDY      28  28  100 S6      29.68S FOG
#BOARDMAN SCHOOLN/A         29  28  96  CALM    29.71R
#BOARDMAN 8SW   N/A         27  26  96  W3      29.71R
#ECHO 8SW       N/A         28  28  100 S1      29.70F
#I-84 EX 198 DOTN/A         38  30  73  N1      N/A
#UMATILLA       N/A         30  27  88  CALM    29.65S
$$

ORZ507-220910-
NORTHERN FOOTHILLS OF THE BLUES

CITY            SKY/WX      TMP DP  RH  WIND    PRES   REMARKS
PENDLETON AIRPT PTCLDY      38  33  82  E9      29.66S
#ADAMS 3WNW     N/A         38  32  79  SE1     29.71S
#ATHENA         N/A         40  32  73  SE3     29.73F
#CAYUSE         N/A         43  32  65  SE23G33 29.67F WCI 34
#HELIX SCHOOL   N/A         36  32  85  N7      29.71F
#HELIX 3N       N/A         38  32  79  N8      29.65S
#HOLDMAN 5SE    N/A         37  33  85  CALM    29.67S
#HOLDMAN 6E     N/A         38  33  82  SE2     29.51F
#M-F GROVE ELEM N/A         45  30  55  SE5     29.65F
#PENDLETON DNTN N/A         38  28  67  CALM    29.68S
#PDT AQUATIC CTRN/A         38  29  70  CALM    29.69S
#PDT SUNRIDGE   N/A         39  32  76  CALM    29.68F
#PENDLETON 7NW  N/A         39  31  73  CALM    32.00S
#PILOT ROCK     N/A         37  26  64  SW3     29.69R
#TUTUILLA       N/A         39  30  70  CALM    29.70F
#UMAPINE 2E     N/A         43  35  73  SE7     29.65F
#WESTON SCHOOL  N/A         41  29  62  S8      29.61F

$$

ORZ508-220910-
SOUTHERN FOOTHILLS OF THE BLUES

CITY            SKY/WX      TMP DP  RH  WIND    PRES   REMARKS
#AJAX           N/A         36  24  61  E2      27.41F
#CONDON SCHOOL  N/A         37  29  72  S7      29.60S
#FOSSIL SCHOOL  N/A         36  28  72  CALM    29.58F
#HEPPNER EOC    N/A         40  29  64  E3      29.62S
#HEPPNER 4NE    N/A         38  28  67  SE6     29.69S
#LEXINGTON 2SE  N/A         40  30  67  SE5     29.60S
#MIKKALO        N/A         29  26  88  E1      29.76S
#OLEX 4N        N/A         34  32  92  S3      29.65S
#RUGGS 5NE      N/A         36  25  64  N5      29.78S
#RUGGS 2SW      N/A         38  28  67  S5      29.71S

$$

ORZ502-503-220910-
BLUE MOUNTAINS

CITY            SKY/WX      TMP DP  RH  WIND    PRES   REMARKS
MEACHAM         PTCLDY      30  24  78  CALM    29.67S
#BATTLE MTN DOT N/A         30  24  78  S6      N/A
#GREENHORN 9SW  N/A         29  27  92  CALM    25.94R
#HEPPNER 15SE   N/A         33  25  72  CALM    25.19S
#LADD CYN SMT   N/A         32  30  92  SE14    N/A    WCI 22
#LADD CREEK ODOTN/A         35  26  69  SW7     N/A
#LONG CREEK HS  N/A         36  30  79  S23G32  N/A    WCI 24
#N POWDER DOT   N/A         31  27  85  SW1     N/A
#PIKES PEAK     N/A         37  27  67  NW23    27.99S WCI 26
#TOLLGATE       N/A         27  26  96  SW3     29.56F
#TROY SCHOOL    N/A         32  30  92  CALM    29.68R
#UKIAH          N/A         26  24  92  CALM    29.69S
#WESTON 4E      N/A         34  29  82  E9      29.69F
$$

ORZ505-220910-
JOHN DAY BASIN

CITY            SKY/WX      TMP DP  RH  WIND    PRES   REMARKS
JOHN DAY        PTCLDY      37  26  64  SE6     29.69F
#ANTELOPE 9ESE  N/A         33  27  78  W3      N/A
#DAYVILLE SCHOOLN/A         37  26  64  S5      29.67S
#MITCHELL       N/A         38  29  70  CALM    29.79F
#MITCHELL 8NW   N/A         34  25  69  S1      29.49F
#MONUMENT HS    N/A         27  24  88  SW1     29.66R
#MT. VERNON 5SE N/A         31  24  75  E2      29.63F
#SPRAY SCHOOL   N/A         28  N/A N/A CALM    N/A
$$

ORZ506-220910-
OCHOCO AND JOHN DAY HIGHLANDS

CITY            SKY/WX      TMP DP  RH  WIND    PRES   REMARKS
#HORSE RIDGE DO N/A         34  25  69  S23     N/A    WCI 22
#KEYES SMT DOT  N/A         33  25  72  E5      N/A
#PAULINA SCHOOL N/A         33  23  66  NE6     N/A
#PINE MTN OBS   N/A         25  24  96  CALM    N/A
#PRAIRIE CITY   N/A         32  23  69  CALM    29.88R
#SENECA         N/A         28  N/A N/A N5      N/A
#SENECA 9NW     N/A         20  19  96  CALM    29.85S
$$

ORZ049-220910-
GRANDE RONDE VALLEY

CITY            SKY/WX      TMP DP  RH  WIND    PRES   REMARKS
LA GRANDE       CLOUDY      37  28  70  S14     29.73R WCI 28
#COVE           N/A         39  31  73  SE10    29.75F
#COVE 6NW       N/A         36  31  82  S2      29.79S
#ELGIN 3N       N/A         35  25  66  SW6     29.72R
#ELGIN 1E       N/A         36  30  79  CALM    N/A
#IMBLER SCHOOL  N/A         34  30  85  CALM    29.71F
#ISLAND CITY 4N N/A         41  40  96  E2      29.54F
#LADD CYN DOT   N/A         36  32  85  S23     N/A    WCI 24
#UNION 1S       N/A         37  31  79  SE9     29.80S
$$

ORZ050-220910-
WALLOWA COUNTY

CITY            SKY/WX      TMP DP  RH  WIND    PRES   REMARKS
JOSEPH AIRPORT  MOCLDY      27  25  92  NE5     29.70S
#IMNAHA SCHOOL  N/A         44  32  62  N10     29.76R
#JOSEPH 3N      N/A         22  17  81  CALM    29.75S
#JOSEPH 3W      N/A         29  25  85  CALM    29.57S
#LOSTINE        N/A         23  22  96  CALM    29.66S
#LOSTINE 3SE    N/A         19  18  96  CALM    29.75F
#MT HOWARD 8000 N/A         19  17  92  S12     29.57F WCI  6
#PROMISE 1S     N/A         28  27  96  CALM    29.90R
#WALLOWA SCHOOL N/A         25  24  96  CALM    29.73F



$$



USA.gov is the U.S. government's official web portal to all federal, state and local government web resources and services.